This demonstration page uses our WeatherBlox Daily Observations layout. Learn more.

39.92423, -83.80882

Hourly Observations for July 8, 2020

Temp ( °F °C ) Dew Point ( °F °C ) Humidity (%) Winds ( mph kmh ) Pressure ( in mb ) Visibility ( mi km ) Precip ( " mm )
12:56 am 00:56 Clear 70 21.1 70 21.1 100 100 Calm 29.99 1016 10 16.0934 0 0
1:56 am 01:56 Clear 70 21.1 70 21.1 100 100 SSE 3 6 29.99 1016 9 14.48406 0 0
2:56 am 02:56 Clear 69 20.6 69 20.6 100 100 E 3 6 29.98 1015 8 12.87472 0 0
3:56 am 03:56 Clear 68 20 68 20 100 100 Calm 29.97 1015 8 12.87472 0 0
4:56 am 04:56 Clear 66 18.9 66 18.9 100 100 N 6 9 29.96 1015 7 11.26538 0 0
5:56 am 05:56 Clear with Mist and Fog 66 18.9 66 18.9 100 100 ESE 5 7 29.96 1015 4 6.43736 0 0
6:56 am 06:56 Sunny with Mist and Fog 67 19.4 67 19.4 100 100 ESE 3 6 29.97 1015 4 6.43736 0 0
7:56 am 07:56 Sunny with Mist and Fog 71 21.7 71 21.7 100 100 ESE 6 9 29.99 1016 6 9.65604 0.01 0.254
8:56 am 08:56 Sunny 75 23.9 73 22.8 94 94 ESE 3 6 30 1016 9 14.48406 0 0
9:56 am 09:56 Sunny 78 25.6 74 23.3 87 87 Calm 30.01 1016 10 16.0934 0 0
10:56 am 10:56 Sunny 82 27.8 74 23.3 77 77 ESE 3 6 30 1016 10 16.0934 0 0
11:56 am 11:56 Sunny 84 28.9 73 22.8 70 70 Calm 29.99 1016 10 16.0934 0 0
12:56 pm 12:56 Sunny 86 30 74 23.3 67 67 E 6 9 29.98 1015 10 16.0934 0 0
1:56 pm 13:56 Sunny 87 30.6 71 21.7 59 59 Calm 29.97 1015 10 16.0934 0 0
2:56 pm 14:56 Sunny 89 31.7 71 21.7 55 55 E 6 9 29.95 1014 10 16.0934 0 0
3:56 pm 15:56 Sunny 89 31.7 71 21.7 55 55 SE 7 11 29.92 1013 10 16.0934 0 0
4:56 pm 16:56 Sunny 90 32.2 71 21.7 54 54 VRB 3 6 29.91 1013 10 16.0934 0 0
5:56 pm 17:56 Sunny 88 31.1 70 21.1 55 55 Calm 29.9 1013 10 16.0934 0 0
6:56 pm 18:56 Sunny 84 28.9 73 22.8 70 70 NNW 6 9 29.9 1012 10 16.0934 0 0
7:56 pm 19:56 Sunny 86 30 74 23.3 67 67 NNW 7 11 29.91 1013 10 16.0934 0 0
8:56 pm 20:56 Sunny 81 27.2 73 22.8 77 77 N 7 11 29.9 1013 10 16.0934 0 0
9:56 pm 21:56 Clear 78 25.6 73 22.8 85 85 NNE 3 6 29.92 1013 10 16.0934 0 0
10:56 pm 22:56 Clear 74 23.3 71 21.7 91 91 E 5 7 29.93 1013 10 16.0934 0 0
11:56 pm 23:56 Clear 72 22.2 71 21.7 97 97 NE 3 6 29.93 1014 10 16.0934 0 0

Powered by AerisWeather